Raleigh, IL

3:04 AM CST on February 20, 2017 (GMT -0600)
Harrisburg-Raleigh

Weather History for KHSB - May, 2014

Change the Weather History Date:

Friday, May 16, 2014

  Actual Average (KMWA) Record (KMWA)
Temperature  
Mean Temperature 50 °F -  
Max Temperature 58 °F 75 °F 89 °F (2001)
Min Temperature 43 °F 51 °F 38 °F (1973)
Degree Days  
Heating Degree Days 14    
Moisture  
Dew Point 41 °F    
Average Humidity 71    
Maximum Humidity 100    
Minimum Humidity 41    
Precipitation  
Precipitation 0.00 in - - ()
Sea Level Pressure  
Sea Level Pressure 30.08 in    
Wind  
Wind Speed 7 mph (WNW)    
Max Wind Speed 17 mph    
Max Gust Speed 24 mph    
Visibility 10 miles    
Events      
Averages and records for this station are not official NWS values.
T = Trace of Precipitation, MM = Missing Value Source: NWS Daily Summary

Daily Weather History Graph

Daily Weather History Graph

Search for Another Location

Airport or City:

Trip Planner

Search our weather history database for the weather conditions in past years. The results will help you decide how hot, cold, wet, or windy it might be!

Date:

Astronomy

May. 16, 2014 Rise Set
Actual Time 5:43 AM CDT 7:58 PM CDT
Civil Twilight 5:13 AM CDT 8:27 PM CDT
Nautical Twilight 4:37 AM CDT 9:04 PM CDT
Astronomical Twilight 3:58 AM CDT 9:43 PM CDT
Moon 10:04 PM CDT (5/16) 7:25 AM CDT (5/16)
Length of Visible Light 15h 13m
Length of Day
14h 14m
Waning Gibbous, 95% of the Moon is Illuminated
May 16
Waning Gibbous
May 21
Last Quarter
May 28
New
Jun 5
First Quarter
Jun 12
Full

Hourly Weather History & Observations

Time (CDT) Temp. Windchill Dew Point Humidity Pressure Visibility Wind Dir Wind Speed Gust Speed Precip Events Conditions
12:15 AM 50.0 °F - 49.5 °F 98% 30.08 in 10.0 mi Calm Calm - N/A   Overcast
12:35 AM 49.6 °F - 49.5 °F 99% 30.08 in 10.0 mi WSW 3.5 mph - N/A   Overcast
1:15 AM 47.3 °F - 47.3 °F 100% 30.07 in 7.0 mi WNW 3.5 mph - N/A   Clear
1:35 AM 47.1 °F - 47.1 °F 100% 30.06 in 7.0 mi Calm Calm - N/A   Clear
1:55 AM 46.4 °F 44.3 °F 46.4 °F 100% 30.05 in 4.0 mi West 4.6 mph - N/A   Clear
2:15 AM 47.3 °F - 47.3 °F 100% 30.05 in 10.0 mi West 4.6 mph - N/A   Clear
2:35 AM 47.5 °F - 47.5 °F 100% 30.04 in 10.0 mi SW 4.6 mph - N/A   Mostly Cloudy
2:55 AM 47.3 °F - 47.3 °F 100% 30.04 in 10.0 mi WSW 4.6 mph - N/A   Mostly Cloudy
3:15 AM 46.2 °F 44.1 °F 46.2 °F 100% 30.04 in 10.0 mi WSW 4.6 mph - N/A   Scattered Clouds
3:35 AM 44.6 °F 41.4 °F 44.6 °F 100% 30.04 in 10.0 mi West 5.8 mph - N/A   Clear
3:55 AM 44.6 °F 42.2 °F 44.6 °F 100% 30.04 in 10.0 mi West 4.6 mph - N/A   Clear
4:15 AM 44.6 °F 41.4 °F 43.7 °F 97% 30.04 in 10.0 mi West 5.8 mph - N/A   Clear
4:35 AM 44.8 °F 43.3 °F 43.7 °F 96% 30.04 in 10.0 mi WSW 3.5 mph - N/A   Clear
4:55 AM 43.5 °F 40.9 °F 42.6 °F 97% 30.05 in 10.0 mi West 4.6 mph - N/A   Clear
5:15 AM 43.9 °F 41.3 °F 43.7 °F 99% 30.05 in 10.0 mi WSW 4.6 mph - N/A   Clear
5:35 AM 43.2 °F 39.7 °F 43.2 °F 100% 30.05 in 7.0 mi West 5.8 mph - N/A   Clear
5:55 AM 43.5 °F 39.4 °F 43.5 °F 100% 30.06 in 10.0 mi West 6.9 mph - N/A   Clear
6:15 AM 44.1 °F 40.1 °F 44.1 °F 100% 30.06 in 10.0 mi West 6.9 mph - N/A   Clear
6:35 AM 44.8 °F 41.0 °F 44.4 °F 99% 30.07 in 10.0 mi West 6.9 mph - N/A   Clear
6:55 AM 45.7 °F 42.0 °F 44.4 °F 95% 30.07 in 10.0 mi West 6.9 mph - N/A   Clear
7:15 AM 46.4 °F 41.9 °F 44.6 °F 93% 30.07 in 10.0 mi West 9.2 mph - N/A   Clear
7:35 AM 47.3 °F - 43.9 °F 88% 30.07 in 10.0 mi WNW 10.4 mph - N/A   Clear
7:55 AM 48.0 °F - 43.3 °F 84% 30.07 in 10.0 mi West 11.5 mph 17.3 mph N/A   Clear
8:15 AM 48.7 °F - 42.3 °F 78% 30.08 in 10.0 mi West 9.2 mph 18.4 mph N/A   Clear
8:35 AM 49.1 °F - 42.3 °F 77% 30.08 in 10.0 mi WNW 13.8 mph - N/A   Clear
8:55 AM 50.0 °F - 41.7 °F 73% 30.08 in 10.0 mi West 12.7 mph 19.6 mph N/A   Clear
9:15 AM 50.9 °F - 42.3 °F 72% 30.09 in 10.0 mi West 13.8 mph 19.6 mph N/A   Clear
9:35 AM 50.9 °F - 41.5 °F 70% 30.09 in 10.0 mi West 15.0 mph - N/A   Scattered Clouds
9:55 AM 52.0 °F - 42.3 °F 69% 30.09 in 10.0 mi West 13.8 mph - N/A   Clear
10:15 AM 52.3 °F - 41.9 °F 68% 30.09 in 10.0 mi West 17.3 mph 20.7 mph N/A   Scattered Clouds
10:35 AM 53.1 °F - 41.2 °F 64% 30.09 in 10.0 mi West 13.8 mph 21.9 mph N/A   Scattered Clouds
10:55 AM 53.6 °F - 40.1 °F 60% 30.09 in 10.0 mi West 16.1 mph 23.0 mph N/A   Scattered Clouds
11:15 AM 54.9 °F - 41.5 °F 61% 30.09 in 10.0 mi West 13.8 mph 20.7 mph N/A   Scattered Clouds
11:35 AM 52.3 °F - 37.9 °F 58% 30.09 in 10.0 mi West 16.1 mph 19.6 mph N/A   Mostly Cloudy
11:55 AM 53.6 °F - 39.0 °F 58% 30.09 in 10.0 mi West 9.2 mph - N/A   Scattered Clouds
12:15 PM 53.8 °F - 39.0 °F 57% 30.09 in 10.0 mi WNW 11.5 mph 20.7 mph N/A   Mostly Cloudy
12:35 PM 54.1 °F - 38.1 °F 55% 30.09 in 10.0 mi West 11.5 mph 20.7 mph N/A   Mostly Cloudy
12:55 PM 54.5 °F - 37.2 °F 52% 30.09 in 10.0 mi WNW 13.8 mph 21.9 mph N/A   Mostly Cloudy
1:15 PM 55.2 °F - 37.2 °F 51% 30.08 in 10.0 mi West 12.7 mph - N/A   Scattered Clouds
1:35 PM 56.7 °F - 36.7 °F 47% 30.08 in 10.0 mi WNW 10.4 mph 21.9 mph N/A   Scattered Clouds
1:55 PM 55.0 °F - 36.7 °F 50% 30.08 in 10.0 mi West 15.0 mph - N/A   Mostly Cloudy
2:15 PM 55.9 °F - 35.2 °F 46% 30.07 in 10.0 mi WNW 13.8 mph 19.6 mph N/A   Scattered Clouds
2:35 PM 58.3 °F - 35.8 °F 43% 30.08 in 10.0 mi West 16.1 mph 24.2 mph N/A   Mostly Cloudy
2:55 PM 56.7 °F - 35.6 °F 45% 30.08 in 10.0 mi West 11.5 mph 18.4 mph N/A   Mostly Cloudy
3:15 PM 56.8 °F - 35.1 °F 44% 30.08 in 10.0 mi WNW 12.7 mph - N/A   Mostly Cloudy
3:35 PM 57.0 °F - 35.8 °F 45% 30.08 in 10.0 mi WNW 12.7 mph 18.4 mph N/A   Mostly Cloudy
3:55 PM 56.3 °F - 35.2 °F 45% 30.08 in 10.0 mi West 10.4 mph - N/A   Overcast
4:15 PM 58.5 °F - 34.9 °F 41% 30.07 in 10.0 mi WNW 12.7 mph - N/A   Mostly Cloudy
4:35 PM 57.6 °F - 35.1 °F 43% 30.08 in 10.0 mi WNW 13.8 mph 18.4 mph N/A   Mostly Cloudy
4:55 PM 57.2 °F - 35.4 °F 44% 30.08 in 10.0 mi West 11.5 mph 16.1 mph N/A   Mostly Cloudy
5:15 PM 57.6 °F - 35.8 °F 44% 30.08 in 10.0 mi WNW 9.2 mph 17.3 mph N/A   Mostly Cloudy
5:35 PM 58.1 °F - 34.9 °F 42% 30.08 in 10.0 mi WNW 13.8 mph - N/A   Scattered Clouds
5:55 PM 57.7 °F - 35.1 °F 43% 30.08 in 10.0 mi WNW 10.4 mph - N/A   Clear
6:15 PM 57.2 °F - 34.7 °F 43% 30.08 in 10.0 mi NW 8.1 mph - N/A   Clear
6:35 PM 56.5 °F - 35.1 °F 45% 30.09 in 10.0 mi WNW 6.9 mph - N/A   Clear
6:55 PM 55.9 °F - 34.3 °F 44% 30.09 in 10.0 mi WNW 6.9 mph - N/A   Clear
7:15 PM 55.4 °F - 35.6 °F 47% 30.09 in 10.0 mi NW 6.9 mph - N/A   Clear
7:35 PM 53.2 °F - 36.7 °F 53% 30.10 in 10.0 mi NNW 3.5 mph - N/A   Clear
7:55 PM 52.7 °F - 37.8 °F 57% 30.10 in 10.0 mi Calm Calm - N/A   Clear
8:15 PM 52.7 °F - 37.4 °F 56% 30.10 in 10.0 mi Calm Calm - N/A   Clear
8:35 PM 50.7 °F - 39.4 °F 65% 30.11 in 10.0 mi Calm Calm - N/A   Clear
8:55 PM 49.3 °F - 41.2 °F 74% 30.11 in 10.0 mi North 3.5 mph - N/A   Clear
9:15 PM 49.5 °F - 39.7 °F 69% 30.12 in 10.0 mi North 3.5 mph - N/A   Clear
9:35 PM 49.1 °F - 39.2 °F 69% 30.13 in 10.0 mi North 5.8 mph - N/A   Clear
9:55 PM 49.1 °F - 39.6 °F 70% 30.14 in 10.0 mi North 6.9 mph - N/A   Clear
10:15 PM 48.7 °F - 39.9 °F 72% 30.14 in 10.0 mi North 4.6 mph - N/A   Clear
10:35 PM 48.2 °F - 40.1 °F 74% 30.14 in 10.0 mi North 3.5 mph - N/A   Clear
10:55 PM 47.5 °F - 40.5 °F 77% 30.14 in 10.0 mi NNE 5.8 mph - N/A   Clear
11:15 PM 47.3 °F - 40.1 °F 76% 30.15 in 10.0 mi North 4.6 mph - N/A   Clear
11:35 PM 46.9 °F - 40.1 °F 77% 30.15 in 10.0 mi North 4.6 mph - N/A   Clear
11:55 PM 46.4 °F - 40.8 °F 81% 30.16 in 10.0 mi Calm Calm - N/A   Mostly Cloudy